Home > Time Zones > World Clock > Weather > Aktau > Past weeks

Flag for Kazakhstan Weather past 2 weeks in Aktau, Kazakhstan

Now
21 °F

Clear.


Feels Like: 9 °F
Forecast: 31 / 43 °F
Wind: 13 mph from East

Location: Aktau

Current Time: Feb 1, 2015 at 10:11:43 AM

Latest Report: Feb 1, 2015 at 9:30 AM


Visibility: 10 mi

Pressure: 30.24 "Hg

Humidity: 74%

Dew point: 14 °F

Location of AktauLocation

Historic Weather in Aktau — Graph

°F

Aktau temperature yesterday

Maximum temperature yesterday: 30 °F (at 4:00 PM)
Minimum temperature yesterday: 19 °F (at 11:00 PM)
Average temperature yesterday: 26 °F

Past Weeks' High & Low Weather Summary

 TemperatureHumidityPressure
High39 °F (Jan 20, 3:30 PM)93% (Jan 17, 11:30 AM)30.72 "Hg (Jan 17, 11:30 AM)
Low10 °F (Jan 25, 8:30 AM)17% (Jan 26, 5:00 PM)29.92 "Hg (Jan 29, 7:30 AM)
Average25 °F72%30.34 "Hg
* Reported Jan 17 9:00 AM — Feb 1 9:00 AM, Aktau, Weather by CustomWeather, © 2014

Note: Actual official high and low records may vary slightly from our data, if they occured in-between our weather recording intervals... More about our weather records

Advertising

Aktau weather history for previous 24 hours

 ConditionsComfort  
Time TempWeatherWind HumidityBarometerVisibility
9:00 AM
Feb 1
21 °FClear.15 mph68%30.21 "Hg10 mi
8:30 AM21 °FClear.15 mph68%30.21 "Hg10 mi
7:30 AM19 °FClear.13 mph73%30.21 "Hg10 mi
7:00 AM19 °FClear.13 mph73%30.21 "Hg10 mi
6:30 AM18 °FClear.15 mph79%30.18 "Hg10 mi
6:00 AM18 °FClear.13 mph79%30.18 "Hg10 mi
5:30 AM18 °FClear.15 mph79%30.18 "Hg10 mi
5:00 AM18 °FClear.13 mph79%30.21 "Hg10 mi
4:30 AM18 °FClear.13 mph79%30.21 "Hg10 mi
4:00 AM18 °FClear.10 mph79%30.21 "Hg10 mi
3:30 AM18 °FClear.6 mph79%30.24 "Hg10 mi
3:00 AM19 °FClear.13 mph73%30.21 "Hg10 mi
2:30 AM19 °FClear.13 mph73%30.21 "Hg10 mi
1:30 AM18 °FClear.13 mph86%30.21 "Hg10 mi
1:00 AM19 °FClear.8 mph79%30.21 "Hg10 mi
12:30 AM19 °FClear.10 mph79%30.21 "Hg10 mi
12:00 AM19 °FClear.10 mph79%30.21 "Hg10 mi
11:30 PM
Jan 31
19 °FClear.10 mph79%30.21 "Hg10 mi
11:00 PM19 °FClear.10 mph86%30.21 "Hg10 mi
10:30 PM21 °FClear.10 mph80%30.21 "Hg10 mi
10:00 PM21 °FClear.10 mph86%30.21 "Hg10 mi
9:30 PM23 °FClear.13 mph86%30.21 "Hg10 mi
9:00 PM23 °FPassing clouds.10 mph86%30.21 "HgN/A
8:30 PM23 °FPassing clouds.8 mph86%30.24 "HgN/A
8:00 PM23 °FPassing clouds.6 mph86%30.24 "HgN/A
7:30 PM25 °FPassing clouds.6 mph86%30.24 "HgN/A
7:00 PM27 °FPassing clouds.8 mph80%30.21 "HgN/A
6:30 PM27 °FPassing clouds.8 mph80%30.21 "HgN/A
6:00 PM28 °FSunny.13 mph80%30.21 "Hg10 mi
5:30 PM28 °FSunny.13 mph74%30.21 "Hg10 mi
5:00 PM30 °FPassing clouds.10 mph69%30.21 "HgN/A
4:30 PM30 °FPassing clouds.13 mph75%30.21 "HgN/A
4:00 PM30 °FScattered clouds.13 mph75%30.21 "HgN/A
3:30 PM28 °FPartly sunny.10 mph80%30.21 "HgN/A
3:00 PM28 °FPartly sunny.10 mph80%30.21 "HgN/A
2:30 PM28 °FPartly sunny.13 mph74%30.24 "HgN/A
2:00 PM27 °FLow clouds.13 mph80%30.24 "HgN/A
1:30 PM27 °FLow clouds.15 mph86%30.24 "HgN/A
1:00 PM27 °FLow clouds.15 mph86%30.24 "HgN/A
12:30 PM25 °FLow clouds.13 mph86%30.24 "HgN/A
12:00 PM25 °FLow clouds.13 mph86%30.24 "HgN/A
11:30 AM25 °FLow clouds.13 mph93%30.24 "HgN/A
11:00 AM25 °FLow clouds.13 mph93%30.24 "Hg6 mi
10:30 AM25 °FLow clouds.10 mph93%30.21 "HgN/A
10:00 AM25 °FIce fog.10 mph86%30.21 "Hg3 mi
Weather by CustomWeather, © 2014

See weather overviewHow to use our weather pages